User: anonymous
Location: Ostrava
(49.8330°N, 18.2830°E)
Time: 02:07:48
(UTC+02:00)
Language:

Iridium 7 - Orbit

View from above orbital plane
View from above orbital plane
View from above satellite
View from above satellite

Ground track
Ground track

The orbit data is extracted from the following two-line orbital elements,

1 24793U 97020B   14264.45775194  .00000399  00000-0  13534-3 0  9846
2 24793 086.4013 016.7985 0002270 112.0303 301.3601 14.34219498909902
Epoch (UTC): 21 September 2014 10:59:09
Eccentricity: 0.0002270
inclination: 86.4013°
perigee height: 776 km
apogee height: 779 km
right ascension of ascending node: 16.7985°
argument of perigee: 112.0303°
revolutions per day: 14.34219498
mean anomaly at epoch: 301.3601°
orbit number at epoch: 90990

The dashed part of the orbit path shows where the satellite is in the earth's shadow,  

DLR